Waarnemingen

Advertentie
Mijn weer
St-Sauveur, Frankrijk (7300): temperatuur & dauwpunt: 20.04.2018 11:00:00 - 26.04.2018 11:00:00 (CEST)St-Sauveur, Frankrijk (7300): windsnelheid & windstoten: 20.04.2018 11:00:00 - 26.04.2018 11:00:00 (CEST)St-Sauveur, Frankrijk (7300): windrichting: 20.04.2018 11:00:00 - 26.04.2018 11:00:00 (CEST)St-Sauveur, Frankrijk (7300): luchtdruk: 20.04.2018 11:00:00 - 26.04.2018 11:00:00 (CEST)St-Sauveur, Frankrijk (7300): zicht: 20.04.2018 11:00:00 - 26.04.2018 11:00:00 (CEST)St-Sauveur, Frankrijk (7300): neerslag: 20.04.2018 11:00:00 - 26.04.2018 11:00:00 (CEST)
Datum & Tijd tt [°C] td [°C] ff [km/u] ff [kn] fx [km/u] fx [kn] dd ppp [hPa] vv [km] rr [mm]
26.04.2018 11:00:00 13,6 6,9 11 6 29 15 WNW 1023,8 20 0,0
26.04.2018 10:00:00 12,5 6,5 16 9 31 17 NW 1023,9 - 0,0
26.04.2018 09:00:00 13,1 7,7 14 8 25 14 NW 1023,6 - 0,0
26.04.2018 08:00:00 11,5 7,8 16 9 29 16 WNW 1023,5 - 0,0
26.04.2018 07:00:00 10,0 6,3 12 6 22 12 W 1023,3 - 0,0
26.04.2018 06:00:00 9,3 5,8 13 7 18 10 WNW 1023,6 - 0,0
26.04.2018 05:00:00 9,4 5,8 12 6 21 11 NW 1023,6 20 0,0
26.04.2018 04:00:00 10,0 6,0 13 7 24 13 NW 1023,9 - 0,0
26.04.2018 03:00:00 10,4 6,2 13 7 29 16 NW 1024,1 - 0,0
26.04.2018 02:00:00 11,3 6,2 18 10 31 17 NW 1024,1 20 0,0
26.04.2018 01:00:00 11,3 6,8 16 9 34 18 NW 1024,0 - 0,0
26.04.2018 00:00:00 11,7 6,8 18 10 35 19 NW 1023,8 - 0,0
25.04.2018 23:00:00 11,7 6,8 19 10 36 20 NW 1023,5 20 0,0
25.04.2018 22:00:00 12,0 7,3 19 10 42 23 NW 1023,2 - 0,0
25.04.2018 21:00:00 12,3 7,4 22 12 44 24 WNW 1022,5 - 0,0
25.04.2018 20:00:00 13,4 7,6 25 13 45 24 NW 1022,0 25 0,0
25.04.2018 19:00:00 14,3 6,9 25 14 49 27 WNW 1021,8 - 0,0
25.04.2018 18:00:00 14,8 7,1 30 16 52 28 WNW 1021,6 - 0,0
25.04.2018 17:00:00 15,6 8,6 27 14 49 26 WNW 1021,5 25 0,0
25.04.2018 16:00:00 15,5 7,8 26 14 50 27 WNW 1021,6 - 0,0
25.04.2018 15:00:00 15,4 8,6 26 14 46 25 WNW 1021,6 - 0,0
25.04.2018 14:00:00 14,7 8,0 23 12 45 24 NW 1021,5 25 0,0
25.04.2018 13:00:00 14,7 7,7 24 13 51 27 NW 1021,5 - 0,0
25.04.2018 12:00:00 14,0 9,4 23 12 48 26 NW 1021,1 - 0,0
25.04.2018 11:00:00 13,8 9,8 28 15 46 25 NW 1020,0 - 0,0
25.04.2018 10:00:00 13,5 12,2 21 11 38 20 WNW 1019,2 - 0,4
25.04.2018 09:00:00 13,9 12,6 18 10 36 20 W 1018,9 - 0,0
25.04.2018 08:00:00 13,4 12,1 15 8 37 20 W 1018,5 - 0,0
25.04.2018 07:00:00 13,7 11,4 18 10 38 20 W 1017,9 - 0,0
25.04.2018 06:00:00 13,7 11,2 17 9 34 18 W 1017,6 - 0,0
25.04.2018 05:00:00 13,4 11,6 14 8 34 18 W 1017,6 20 0,0
25.04.2018 04:00:00 13,2 11,6 15 8 32 17 W 1018,1 - 0,0
25.04.2018 03:00:00 12,8 11,2 15 8 36 19 W 1018,3 - 0,0
25.04.2018 02:00:00 13,2 10,4 14 8 29 15 W 1018,4 20 0,0
25.04.2018 01:00:00 12,4 9,8 11 6 26 14 W 1018,3 - 0,0
25.04.2018 00:00:00 11,6 8,4 11 6 29 15 WNW 1018,5 - 0,0
24.04.2018 23:00:00 12,3 8,2 17 9 31 17 WNW 1019,0 20 0,0
24.04.2018 22:00:00 12,5 8,2 13 7 28 15 WNW 1018,7 - 0,0
24.04.2018 21:00:00 12,5 8,2 11 6 25 13 WNW 1018,2 - 0,0
24.04.2018 20:00:00 13,9 8,5 9 5 20 11 W 1018,2 - 0,0
24.04.2018 19:00:00 15,0 8,5 9 5 27 14 W 1018,5 - 0,0
24.04.2018 18:00:00 14,8 8,5 13 7 26 14 W 1018,9 - 0,0
24.04.2018 17:00:00 15,6 8,1 10 5 28 15 W 1019,5 30 0,0
24.04.2018 16:00:00 15,7 8,2 9 5 24 13 W 1020,1 - 0,0
24.04.2018 15:00:00 15,4 7,9 10 5 25 13 WZW 1020,6 - 0,0
24.04.2018 14:00:00 15,4 8,2 9 5 26 14 W 1021,0 30 0,0
24.04.2018 13:00:00 15,1 7,4 11 6 23 12 W 1021,4 - 0,0
24.04.2018 12:00:00 14,9 8,1 9 5 20 11 WZW 1021,7 - 0,0
24.04.2018 11:00:00 14,4 7,9 8 4 19 11 WZW 1021,6 - 0,0
24.04.2018 10:00:00 13,6 7,8 6 3 19 10 WNW 1021,5 - 0,0
24.04.2018 09:00:00 12,7 7,6 10 5 19 10 WNW 1021,7 - 0,0
24.04.2018 08:00:00 10,3 8,2 6 3 10 6 NW 1021,2 - 0,0
24.04.2018 07:00:00 10,0 8,3 6 3 14 7 NNW 1020,8 - 0,0
24.04.2018 06:00:00 9,7 8,1 8 4 14 7 NNW 1021,0 - 0,0
24.04.2018 05:00:00 9,6 7,9 10 5 15 8 NW 1021,4 25 0,0
24.04.2018 04:00:00 9,0 7,4 11 6 17 9 NW 1021,5 - 0,0
24.04.2018 03:00:00 9,2 7,1 10 6 19 10 NW 1021,8 - 0,0
24.04.2018 02:00:00 9,2 7,1 14 8 20 11 NW 1022,0 30 0,0
24.04.2018 01:00:00 9,5 7,4 13 7 21 11 NW 1022,3 - 0,0
24.04.2018 00:00:00 9,8 7,2 12 7 20 11 NW 1022,5 - 0,0
23.04.2018 23:00:00 10,2 7,1 13 7 19 11 NW 1022,6 30 0,0
23.04.2018 22:00:00 10,6 6,9 12 6 17 9 NW 1022,1 - 0,0
23.04.2018 21:00:00 12,0 7,3 11 6 21 11 NW 1021,7 - 0,0
23.04.2018 20:00:00 14,4 7,7 10 6 25 13 WNW 1021,5 25 0,0
23.04.2018 19:00:00 15,4 8,2 12 7 30 16 NNW 1021,5 - 0,0
23.04.2018 18:00:00 15,6 7,6 17 9 32 17 WNW 1021,6 - 0,0
23.04.2018 17:00:00 15,8 8,8 11 6 30 16 NW 1021,6 25 0,0
23.04.2018 16:00:00 17,2 7,8 10 5 28 15 W 1021,8 - 0,0
23.04.2018 15:00:00 16,7 9,1 13 7 29 15 WNW 1021,8 - 0,0
23.04.2018 14:00:00 16,8 8,7 10 5 28 15 W 1021,9 25 0,0
23.04.2018 13:00:00 15,8 9,0 6 4 23 13 WNW 1021,9 - 0,0
23.04.2018 12:00:00 14,8 8,9 13 7 27 14 NW 1022,0 - 0,0
23.04.2018 11:00:00 14,3 9,5 10 5 22 12 WNW 1021,8 - 0,0
23.04.2018 10:00:00 13,9 10,3 10 5 17 9 NW 1021,1 - 0,0
23.04.2018 09:00:00 13,3 10,5 9 5 16 9 NNW 1020,5 - 0,0
23.04.2018 08:00:00 12,8 10,5 9 5 21 11 NNW 1019,8 25 0,0
23.04.2018 07:00:00 12,8 10,9 10 6 23 12 NW 1019,4 - 0,0
23.04.2018 06:00:00 13,0 10,5 9 5 33 18 NW 1019,2 - 0,0
23.04.2018 05:00:00 13,3 11,4 14 8 27 15 NW 1019,1 20 0,0
23.04.2018 04:00:00 13,0 11,2 13 7 23 12 WNW 1018,8 - 0,0
23.04.2018 03:00:00 12,7 11,4 13 7 24 13 NW 1018,8 - 0,0
23.04.2018 02:00:00 11,6 10,2 14 7 21 11 WNW 1018,4 15 0,0
23.04.2018 01:00:00 11,8 10,4 12 6 19 10 WNW 1018,2 - 0,0
23.04.2018 00:00:00 12,5 10,6 9 5 19 10 WNW 1018,2 - 0,0
22.04.2018 23:00:00 13,0 10,9 11 6 27 15 WNW 1017,8 20 0,0
22.04.2018 22:00:00 13,6 11,8 13 7 23 13 WNW 1016,7 - 0,0
22.04.2018 21:00:00 14,1 12,3 8 4 21 12 W 1015,8 - 0,0
22.04.2018 20:00:00 14,4 12,6 9 5 25 13 W 1015,5 15 0,0
22.04.2018 19:00:00 14,6 12,8 10 5 26 14 W 1015,5 - 0,0
22.04.2018 18:00:00 15,1 13,1 11 6 29 16 W 1014,8 - 0,0
22.04.2018 17:00:00 16,4 13,9 10 6 31 17 WZW 1014,8 18 0,0
22.04.2018 16:00:00 17,0 14,3 10 5 34 18 WZW 1015,3 - 0,0
22.04.2018 15:00:00 17,3 13,6 14 8 23 12 ZZW 1014,9 - 0,0
22.04.2018 14:00:00 17,1 13,0 10 5 20 11 ZZW 1014,7 15 0,0
22.04.2018 13:00:00 15,8 12,2 8 5 21 12 WZW 1015,0 - 0,0
22.04.2018 12:00:00 15,0 12,7 9 5 26 14 W 1015,0 - 0,0
22.04.2018 11:00:00 14,3 12,8 4 2 16 9 W 1014,2 6 0,0
22.04.2018 10:00:00 14,3 13,2 5 3 19 10 WNW 1013,7 - 0,0
22.04.2018 09:00:00 14,2 13,2 8 4 23 12 W 1013,6 - 0,0
22.04.2018 08:00:00 14,6 13,0 13 7 18 10 ZW 1013,3 20 0,0
22.04.2018 07:00:00 13,7 11,7 13 7 18 10 ZZW 1012,9 - 0,0
22.04.2018 06:00:00 13,9 11,8 12 7 18 10 ZW 1013,1 - 0,0
22.04.2018 05:00:00 13,5 9,9 11 6 18 10 ZZO 1013,6 20 0,0
22.04.2018 04:00:00 12,6 9,6 9 5 15 8 Z 1013,9 - 0,0
22.04.2018 03:00:00 13,4 10,0 10 5 14 8 ZZO 1014,2 - 0,0
22.04.2018 02:00:00 14,3 10,7 10 5 16 8 ZO 1014,4 20 0,0
22.04.2018 01:00:00 13,5 10,1 9 5 13 7 ZO 1014,7 - 0,0
22.04.2018 00:00:00 13,8 9,2 9 5 11 6 ZO 1014,9 - 0,0
21.04.2018 23:00:00 13,9 8,1 6 3 7 4 ZO 1015,1 25 0,0
21.04.2018 22:00:00 14,5 9,5 3 1 8 5 OZO 1015,1 - 0,0
21.04.2018 21:00:00 17,4 9,8 5 3 9 5 ZW 1015,0 - 0,0
21.04.2018 20:00:00 20,4 10,2 4 2 16 8 Z 1015,6 25 0,0
21.04.2018 19:00:00 20,2 12,7 7 4 16 9 Z 1016,1 - 0,0
21.04.2018 18:00:00 19,8 13,7 8 5 16 9 ZZO 1016,3 - 0,0
21.04.2018 17:00:00 20,4 13,6 9 5 18 10 ZZO 1016,7 20 0,0
21.04.2018 16:00:00 19,8 13,7 11 6 21 12 ZZO 1017,4 - 0,0
21.04.2018 15:00:00 19,6 14,2 12 7 22 12 Z 1017,7 - 0,0
21.04.2018 14:00:00 19,5 14,3 10 6 21 11 ZZO 1018,0 - 0,0
21.04.2018 13:00:00 19,2 14,2 12 7 25 14 ZO 1018,5 - 0,0
21.04.2018 12:00:00 18,9 14,0 16 9 25 13 ZO 1018,7 - 0,0
21.04.2018 11:00:00 18,6 13,9 13 7 22 12 ZO 1018,6 18 0,0
21.04.2018 10:00:00 18,3 12,9 13 7 21 11 ZO 1018,5 - 0,0
21.04.2018 09:00:00 17,4 12,7 12 6 23 12 ZO 1018,3 - 0,0
21.04.2018 08:00:00 16,2 12,2 16 8 29 16 ZO 1018,5 25 0,0
21.04.2018 07:00:00 15,9 11,7 14 7 26 14 ZO 1018,1 - 0,0
21.04.2018 06:00:00 14,6 11,4 12 6 24 13 OZO 1018,1 - 0,0
21.04.2018 05:00:00 14,5 11,3 12 7 19 11 O 1018,3 25 0,0
21.04.2018 04:00:00 16,4 12,0 11 6 24 13 ONO 1018,7 - 0,0
21.04.2018 03:00:00 17,5 12,0 16 9 23 12 NO 1019,0 - 0,0
21.04.2018 02:00:00 16,2 11,8 16 9 23 13 NNO 1019,5 30 0,0
21.04.2018 01:00:00 16,0 10,3 18 10 26 14 N 1019,8 - 0,0
21.04.2018 00:00:00 16,2 9,8 19 11 26 14 N 1020,1 - 0,0
20.04.2018 23:00:00 16,1 8,8 17 9 23 12 N 1020,4 30 0,0
20.04.2018 22:00:00 16,3 9,5 16 9 23 12 N 1020,5 - 0,0
20.04.2018 21:00:00 17,7 9,6 11 6 16 8 NNW 1020,3 - 0,0
20.04.2018 20:00:00 21,2 10,1 5 3 18 10 NW 1020,4 30 0,0
20.04.2018 19:00:00 22,0 11,4 9 5 17 9 N 1020,5 - 0,0
20.04.2018 18:00:00 24,0 9,6 3 2 14 7 ZZW 1020,6 - 0,0
20.04.2018 17:00:00 23,0 9,7 9 5 21 11 ZZW 1021,2 30 0,0
20.04.2018 16:00:00 22,6 9,0 12 7 29 16 Z 1021,7 - 0,0
20.04.2018 15:00:00 22,1 8,9 16 9 32 17 ZZO 1022,3 - 0,0
20.04.2018 14:00:00 21,2 10,7 17 9 29 16 ZO 1022,5 30 0,0
20.04.2018 13:00:00 20,3 11,0 17 9 32 17 ZO 1022,8 - 0,0
20.04.2018 12:00:00 20,7 11,1 12 6 32 17 ZO 1022,8 - 0,0
20.04.2018 11:00:00 20,1 10,2 16 8 31 17 ZO 1022,6 - 0,0

tt = temperatuur
td = dauwpunt
ff = windsnelheid
fx = windstoten
dd = windrichting
ppp = luchtdruk
vv = zicht
rr = neerslag

Weerstations in de omgeving